Time,TemperatureF,DewpointF,PressureIn,WindDirection,WindDirectionDegrees,WindSpeedMPH,WindSpeedGustMPH,Humidity,HourlyPrecipIn,Conditions,Clouds,dailyrainin,SoftwareType,DateUTC
2013-03-06 00:00:00,47.5,37.4,29.22,East,90,0.0,0.0,68,0.00,00:00,,0.00,WeatherDisplay:WD co,2013-03-05 22:00:00,
2013-03-06 00:10:00,47.1,37.5,29.21,NNW,339,0.0,1.0,69,0.00,00:10,,0.00,WeatherDisplay:WD co,2013-03-05 22:10:00,
2013-03-06 00:15:00,47.3,37.6,29.21,NW,324,0.0,2.0,69,0.00,00:15,,0.00,WeatherDisplay:WD co,2013-03-05 22:15:00,
2013-03-06 00:55:00,46.9,37.7,29.20,North,0,0.0,2.0,70,0.00,00:55,,0.00,WeatherDisplay:WD co,2013-03-05 22:55:00,
2013-03-06 01:40:00,46.4,37.1,29.20,NW,315,0.0,2.0,70,0.00,01:40,,0.00,WeatherDisplay:WD co,2013-03-05 23:40:00,
2013-03-06 02:00:00,45.5,35.9,29.21,NW,315,0.0,1.0,69,0.00,02:00,,0.00,WeatherDisplay:WD co,2013-03-06 00:00:00,
2013-03-06 02:10:00,46.2,36.6,29.20,WNW,302,0.0,2.0,69,0.00,02:10,,0.00,WeatherDisplay:WD co,2013-03-06 00:10:00,
2013-03-06 02:20:00,45.5,35.9,29.20,NNW,342,0.0,0.0,69,0.00,02:20,,0.00,WeatherDisplay:WD co,2013-03-06 00:20:00,
2013-03-06 02:50:00,45.1,37.0,29.19,North,351,0.0,1.0,73,0.00,02:50,,0.00,WeatherDisplay:WD co,2013-03-06 00:50:00,
2013-03-06 03:25:00,46.0,37.2,29.19,WSW,255,0.0,0.0,71,0.00,03:25,,0.00,WeatherDisplay:WD co,2013-03-06 01:25:00,
2013-03-06 03:35:00,45.5,36.3,29.19,SW,216,0.0,0.0,70,0.00,03:35,,0.00,WeatherDisplay:WD co,2013-03-06 01:35:00,
2013-03-06 04:00:00,45.0,36.8,29.18,NNW,347,0.0,1.0,73,0.00,04:00,,0.00,WeatherDisplay:WD co,2013-03-06 02:00:00,
2013-03-06 04:50:00,43.7,36.0,29.17,NNW,333,0.0,2.0,74,0.00,04:50,,0.00,WeatherDisplay:WD co,2013-03-06 02:50:00,
2013-03-06 05:15:00,43.7,35.6,29.18,NW,315,1.0,2.0,73,0.00,05:15,,0.00,WeatherDisplay:WD co,2013-03-06 03:15:00,
2013-03-06 05:20:00,43.7,35.3,29.18,NNW,342,0.0,1.0,72,0.00,05:20,,0.00,WeatherDisplay:WD co,2013-03-06 03:20:00,
2013-03-06 06:05:00,43.7,35.6,29.18,WNW,298,0.0,1.0,73,0.00,06:05,,0.00,WeatherDisplay:WD co,2013-03-06 04:05:00,
2013-03-06 06:35:00,44.2,36.8,29.18,ENE,72,0.0,2.0,75,0.00,06:35,,0.00,WeatherDisplay:WD co,2013-03-06 04:35:00,
2013-03-06 06:50:00,45.5,37.0,29.17,East,81,3.0,7.0,72,0.00,06:50,,0.00,WeatherDisplay:WD co,2013-03-06 04:50:00,
2013-03-06 07:15:00,45.7,37.5,29.17,NW,321,3.0,5.0,73,0.00,07:15,,0.00,WeatherDisplay:WD co,2013-03-06 05:15:00,
2013-03-06 07:35:00,46.2,37.0,29.17,NW,322,1.0,4.0,70,0.00,07:35,,0.00,WeatherDisplay:WD co,2013-03-06 05:35:00,
2013-03-06 08:35:00,54.5,39.6,29.18,NW,311,0.0,2.0,57,0.00,08:35,,0.00,WeatherDisplay:WD co,2013-03-06 06:35:00,
2013-03-06 09:40:00,59.5,40.9,29.18,WNW,285,0.0,1.0,50,0.00,09:40,,0.00,WeatherDisplay:WD co,2013-03-06 07:40:00,
2013-03-06 09:45:00,57.4,39.9,29.19,SW,234,0.0,1.0,52,0.00,09:45,,0.00,WeatherDisplay:WD co,2013-03-06 07:45:00,
2013-03-06 10:15:00,55.4,39.0,29.18,South,185,0.0,2.0,54,0.00,10:15,,0.00,WeatherDisplay:WD co,2013-03-06 08:15:00,
2013-03-06 10:30:00,57.0,40.5,29.17,SSW,198,0.0,1.0,54,0.00,10:30,,0.00,WeatherDisplay:WD co,2013-03-06 08:30:00,
2013-03-06 11:10:00,54.7,38.4,29.17,South,184,0.0,1.0,54,0.00,11:10,,0.00,WeatherDisplay:WD co,2013-03-06 09:10:00,
2013-03-06 11:20:00,56.1,39.7,29.16,East,90,0.0,1.0,54,0.00,11:20,,0.00,WeatherDisplay:WD co,2013-03-06 09:20:00,
2013-03-06 11:40:00,60.8,41.5,29.15,WSW,247,2.0,4.0,49,0.00,11:40,,0.00,WeatherDisplay:WD co,2013-03-06 09:40:00,
2013-03-06 11:45:00,59.5,40.9,29.15,West,269,0.0,3.0,50,0.00,11:45,,0.00,WeatherDisplay:WD co,2013-03-06 09:45:00,
2013-03-06 11:50:00,59.9,41.2,29.14,SW,215,0.0,1.0,50,0.00,11:50,,0.00,WeatherDisplay:WD co,2013-03-06 09:50:00,
2013-03-06 11:55:00,60.3,42.6,29.14,SW,225,0.0,4.0,52,0.00,11:55,,0.00,WeatherDisplay:WD co,2013-03-06 09:55:00,
2013-03-06 12:25:00,56.5,41.0,29.14,SSW,195,0.0,1.0,56,0.00,12:25,,0.00,WeatherDisplay:WD co,2013-03-06 10:25:00,
2013-03-06 12:35:00,57.2,41.6,29.14,SSW,212,0.0,1.0,56,0.00,12:35,,0.00,WeatherDisplay:WD co,2013-03-06 10:35:00,
2013-03-06 13:10:00,56.5,41.0,29.12,SSW,207,0.0,2.0,56,0.00,13:10,,0.00,WeatherDisplay:WD co,2013-03-06 11:10:00,
2013-03-06 14:00:00,58.1,41.0,29.11,SW,230,0.0,1.0,53,0.00,14:00,,0.00,WeatherDisplay:WD co,2013-03-06 12:00:00,
2013-03-06 14:50:00,57.7,40.7,29.09,WSW,239,0.0,1.0,53,0.00,14:50,,0.00,WeatherDisplay:WD co,2013-03-06 12:50:00,
2013-03-06 15:05:00,56.5,40.5,29.08,South,180,0.0,1.0,55,0.00,15:05,,0.00,WeatherDisplay:WD co,2013-03-06 13:05:00,
2013-03-06 19:55:00,53.6,38.7,29.00,NNW,331,0.0,2.0,57,0.00,19:55,,0.00,WeatherDisplay:WD co,2013-03-06 17:55:00,